Starlink 11446

operational
NORAD ID: 62416 Int'l Des: 2024-249 Owner: SPXS Country: US Constellation: starlink
LEOCIRCULAR

Über Starlink 11446

Beschreibung wird geladen...

Live-Position

3D-Globus wird geladen...

Nächste Überflüge

Höhenverlauf

Altitude vs Time

uPlot chart will show altitude changes over time

Zweizeiliger Elementsatz

1 62416U 24249H 25351.59219286 .00248752 00000-0 18812-2 0 9998
2 62416 42.9988 302.0796 0000468 15.8257 344.2625 15.70882103 56578
Epoch: 17. Dez. 2025 • Age: 7 hours

Aktueller Status

Höhe 356.7 km
Geschwindigkeit 7.70 km/s
Subsatellitenpunkt 30.21°N, 42.12°E
Startdatum 23. Dez. 2024
Alter 0.9 years
Typ internet

Technische Details

Klassifizierung Payload
Masse 960.00 kg
Trockenmasse 910.00 kg
Gesamtmasse 960.00 kg
Länge 0.30 m
Durchmesser 4.10 m
Spannweite 29.00 m
Form Box + pan
Hersteller SPXS
Bus-Typ Starlink V2MD
Phasenstatus In Orbit
Besitzer/Staat SPXS/US

Große Konstellationen

Loading constellations...